User: anonymous   Login
Location: Unspecified
(0.0000°N, 0.0000°E)
Time: 10:15:52
(UTC+00:00)
Language:

ATS 6 - Orbit

View from above orbital plane
View from above orbital plane
View from above satellite
View from above satellite

Ground track
Ground track

The orbit data is extracted from the following two-line orbital elements,

1  7318U 74039A   19081.87561304 +.00000014 +00000-0 +00000-0 0  9990
2  7318 008.3342 299.6050 0024854 246.0422 313.7935 01.01977550095049
Epoch (UTC): 22 March 2019 21:00:52
Eccentricity: 0.0024854
inclination: 8.3342°
perigee height: 35211 km
apogee height: 35418 km
right ascension of ascending node: 299.6050°
argument of perigee: 246.0422°
revolutions per day: 1.01977550
mean anomaly at epoch: 313.7935°
orbit number at epoch: 9504

The dashed part of the orbit path shows where the satellite is in the earth's shadow,  

DLR